Weather History for White Plains, NY

Change the Weather History Date:

Friday, August 10, 2012

  Actual Average Record
Temperature  
Mean Temperature 74 °F -  
Max Temperature 79 °F 80 °F 93 °F (2001)
Min Temperature 69 °F 63 °F 55 °F (1989)
Cooling Degree Days 9    
Growing Degree Days 24 (Base 50)    
Moisture  
Dew Point 72 °F    
Average Humidity 89    
Maximum Humidity 97    
Minimum Humidity 79    
Precipitation  
Precipitation 0.72 in - - ()
Sea Level Pressure  
Sea Level Pressure 29.82 in    
Wind  
Wind Speed 4 mph (SSE)    
Max Wind Speed 10 mph    
Max Gust Speed 17 mph    
Visibility 6 miles    
Events Fog , Rain , Thunderstorm    
Averages and records for this station are not official NWS values.
T = Trace of Precipitation, MM = Missing Value Source: NWS Daily Summary

Daily Weather History Graph

Daily Weather History Graph

Search for Another Location

Airport:

Trip Planner

Search our weather history database for the weather conditions in past years. The results will help you decide how hot, cold, wet, or windy it might be!

Date:

Astronomy

Aug. 10, 2012 Rise Set
Actual Time 5:59 AM EDT 7:59 PM EDT
Civil Twilight 5:29 AM EDT 8:29 PM EDT
Nautical Twilight 4:53 AM EDT 9:05 PM EDT
Astronomical Twilight 4:13 AM EDT 9:45 PM EDT
Moon No Moon Rise 2:38 PM EDT (8/10)
Length of Visible Light 14h 59m
Length of Day
13h 59m
Last Quarter, 42% of the Moon is Illuminated
Aug 10
Last Quarter
Aug 17
New
Aug 24
First Quarter
Aug 31
Full
Sep 8
Last Quarter

Hourly Weather History & Observations

Time (EDT) Temp. Dew Point Humidity Pressure Visibility Wind Dir Wind Speed Gust Speed Precip Events Conditions
12:56 AM 73.9 °F 72.0 °F 93% 29.88 in 5.0 mi Calm Calm - N/A   Clear
1:56 AM 73.9 °F 73.0 °F 97% 29.86 in 3.0 mi SSE 5.8 mph - N/A   Clear
2:56 AM 75.0 °F 73.0 °F 94% 29.86 in 3.0 mi South 3.5 mph - N/A   Clear
3:56 AM 73.9 °F 73.0 °F 97% 29.85 in 3.0 mi SSE 3.5 mph - N/A   Clear
4:56 AM 75.0 °F 73.0 °F 94% 29.85 in 5.0 mi SSE 3.5 mph - N/A   Overcast
5:56 AM 75.0 °F 73.0 °F 94% 29.85 in 6.0 mi SE 6.9 mph - N/A   Overcast
6:56 AM 75.2 °F 73.4 °F 94% 29.86 in 5.0 mi SE 4.6 mph - N/A Rain Rain
7:56 AM 77.0 °F 73.4 °F 89% 29.86 in 5.0 mi SSE 8.1 mph - N/A Rain Rain
7:58 AM 77.0 °F 73.4 °F 89% 29.87 in 1.5 mi SW 8.1 mph - 0.05 in Rain Rain
8:00 AM 77.0 °F 73.4 °F 89% 29.86 in 0.5 mi Variable 5.8 mph - 0.09 in Fog , Rain Rain
8:02 AM 75.2 °F 73.4 °F 94% 29.85 in 5.0 mi West 3.5 mph - 0.09 in Rain Rain
8:56 AM 78.1 °F 73.9 °F 87% 29.84 in 10.0 mi South 9.2 mph - 0.09 in   Overcast
9:56 AM 79.0 °F 73.0 °F 82% 29.83 in 10.0 mi SSE 10.4 mph 17.3 mph N/A   Mostly Cloudy
10:56 AM 79.0 °F 73.0 °F 82% 29.82 in 10.0 mi SSE 10.4 mph - N/A   Mostly Cloudy
11:56 AM 79.0 °F 72.0 °F 79% 29.81 in 10.0 mi SSE 10.4 mph - N/A   Mostly Cloudy
12:56 PM 75.9 °F 73.0 °F 91% 29.81 in 4.0 mi SE 8.1 mph - 0.04 in Rain , Thunderstorm Thunderstorms and Rain
1:12 PM 75.2 °F 73.4 °F 94% 29.81 in 2.5 mi SE 3.5 mph - 0.06 in Rain Rain
1:21 PM 75.2 °F 73.4 °F 94% 29.82 in 2.5 mi SE 5.8 mph - 0.07 in Rain , Thunderstorm Light Thunderstorms and Rain
1:52 PM 69.8 °F 66.2 °F 88% 29.82 in 2.5 mi Calm Calm - 0.53 in Rain Heavy Rain
1:56 PM 70.0 °F 66.9 °F 90% 29.80 in 2.5 mi ESE 4.6 mph - 0.55 in Rain Rain
2:51 PM 73.4 °F 69.8 °F 88% 29.80 in 5.0 mi SE 5.8 mph - 0.04 in   Mostly Cloudy
2:56 PM 73.0 °F 70.0 °F 90% 29.78 in 5.0 mi SE 5.8 mph - 0.04 in   Mostly Cloudy
3:56 PM 75.0 °F 70.0 °F 84% 29.75 in 10.0 mi SSE 6.9 mph - N/A   Mostly Cloudy
4:56 PM 75.9 °F 69.1 °F 79% 29.75 in 10.0 mi South 3.5 mph - N/A   Mostly Cloudy
5:56 PM 77.0 °F 70.0 °F 79% 29.75 in 10.0 mi Variable 3.5 mph - N/A   Mostly Cloudy
6:56 PM 75.9 °F 70.0 °F 82% 29.76 in 10.0 mi SSE 4.6 mph - N/A   Mostly Cloudy
7:56 PM 75.0 °F 71.1 °F 87% 29.78 in 10.0 mi SSE 3.5 mph - N/A   Mostly Cloudy
8:56 PM 73.0 °F 70.0 °F 90% 29.79 in 10.0 mi Calm Calm - N/A   Scattered Clouds
9:56 PM 72.0 °F 70.0 °F 93% 29.79 in 10.0 mi Calm Calm - N/A   Partly Cloudy
10:56 PM 72.0 °F 70.0 °F 93% 29.79 in 7.0 mi Calm Calm - N/A   Scattered Clouds
11:56 PM 72.0 °F 70.0 °F 93% 29.79 in 6.0 mi Calm Calm - N/A   Scattered Clouds